User: anonymous   Login
Location: San Antonio
(29.4240°N, 98.4930°W)
Time: 03:53:40
(UTC-05:00)
Language:

Courier 1B - Orbit

View from above orbital plane
View from above orbital plane
View from above satellite
View from above satellite

Ground track
Ground track

The orbit data is extracted from the following two-line orbital elements,

1 00058U 60013A   24196.88639648  .00000113  00000-0  41209-4 0  9992
2 00058  28.3270 103.2022 0164943 152.5253 208.4123 13.46380154139342
Epoch (UTC): 14 July 2024 21:16:24
Eccentricity: 0.0164943
inclination: 28.3270°
perigee height: 962 km
apogee height: 1209 km
right ascension of ascending node: 103.2022°
argument of perigee: 152.5253°
revolutions per day: 13.46380154
mean anomaly at epoch: 208.4123°
orbit number at epoch: 13934

The dashed part of the orbit path shows where the satellite is in the earth's shadow,  

DLR